Flag for Australia Weather past 2 weeks in Mildura, Victoria, Australia

Now
52 °F

Overcast.


Feels Like: 50 °F
Forecast: 47 / 57 °F
Wind: 5 mph from Northeast

Location: Mildura Airport

Current Time: Sep 2, 2015 at 8:38:44 AM

Latest Report: Sep 2, 2015 at 6:00 AM


Visibility: N/A

Pressure: 29.81 "Hg

Humidity: 76%

Dew point: 44 °F

Location of MilduraLocation

Historic Weather in Mildura — Graph

°F

Mildura temperature yesterday

Maximum temperature yesterday: 70 °F (at 2:00 PM)
Minimum temperature yesterday: 39 °F (at 6:00 AM)
Average temperature yesterday: 55 °F

Past Weeks' High & Low Weather Summary

 TemperatureHumidityPressure
High73 °F (Aug 20, 2:00 PM)99% (Aug 28, 5:00 AM)30.37 "Hg (Aug 28, 5:00 AM)
Low33 °F (Aug 30, 6:00 AM)24% (Aug 20, 2:00 PM)29.81 "Hg (Sep 2, 4:00 AM)
Average54 °F59%30.15 "Hg
* Reported Aug 18 6:00 AM — Sep 2 6:00 AM, Mildura, Weather by CustomWeather, © 2015

Note: Actual official high and low records may vary slightly from our data, if they occured in-between our weather recording intervals... More about our weather records

Advertising

Mildura weather history for previous 24 hours

 ConditionsComfort  
Time TempWeatherWind HumidityBarometerVisibility
6:00 AM
Wed, Sep 2
52 °FOvercast.5 mph76%29.81 "HgN/A
5:00 AM54 °FCool.8 mph64%29.81 "HgN/A
4:00 AM58 °FRefreshingly cool.10 mph42%29.81 "HgN/A
3:00 AM57 °FOvercast.8 mph44%29.83 "HgN/A
2:00 AM54 °FCool.7 mph47%29.85 "HgN/A
1:00 AM60 °FRefreshingly cool.12 mph36%29.85 "HgN/A
12:00 AM60 °FOvercast.12 mph36%29.87 "HgN/A
11:00 PM
Tue, Sep 1
60 °FRefreshingly cool.12 mph34%29.88 "HgN/A
10:00 PM59 °FRefreshingly cool.10 mph35%29.87 "HgN/A
9:00 PM60 °FOvercast.8 mph36%29.88 "HgN/A
8:00 PM59 °FRefreshingly cool.7 mph40%29.88 "HgN/A
7:00 PM60 °FRefreshingly cool.7 mph41%29.88 "HgN/A
6:00 PM62 °FOvercast.7 mph36%29.88 "HgN/A
5:00 PM66 °FMild.12 mph30%29.88 "HgN/A
4:00 PM68 °FMild.14 mph26%29.89 "HgN/A
3:00 PM68 °FPartly sunny.13 mph27%29.90 "Hg19 mi
2:00 PM70 °FMild.9 mph26%29.92 "HgN/A
12:00 PM67 °FMild.10 mph29%29.98 "HgN/A
11:00 AM65 °FMild.10 mph31%30.01 "HgN/A
10:00 AM61 °FRefreshingly cool.8 mph40%30.02 "HgN/A
9:00 AM53 °FPassing clouds.7 mph52%30.02 "Hg22 mi
8:00 AM46 °FCool.6 mph64%30.01 "HgN/A
Weather by CustomWeather, © 2015

See weather overviewHow to use our weather pages